www.pogodaiklimat.ru
ПОГОДА в Торае
Время
(UTC), дата
07 11.10
08 11.10
09 11.10
10 11.10
11 11.10
12 11.10
13 11.10
14 11.10
15 11.10
16 11.10
17 11.10
18 11.10
19 11.10
20 11.10
21 11.10
22 11.10
23 11.10
00 12.10
01 12.10
02 12.10
03 12.10
04 12.10
05 12.10
06 12.10
07 12.10
08 12.10
09 12.10
10 12.10
11 12.10
12 12.10
13 12.10
14 12.10
15 12.10
16 12.10
17 12.10
18 12.10
19 12.10
20 12.10
21 12.10
22 12.10
23 12.10
00 13.10
01 13.10
02 13.10
03 13.10
04 13.10
05 13.10
06 13.10
07 13.10
08 13.10
09 13.10
10 13.10
11 13.10
12 13.10
13 13.10
14 13.10
15 13.10
16 13.10
17 13.10
18 13.10
19 13.10
20 13.10
21 13.10
22 13.10
23 13.10
00 14.10
01 14.10
02 14.10
03 14.10
04 14.10
05 14.10
06 14.10
07 14.10
08 14.10
09 14.10
10 14.10
11 14.10
12 14.10
13 14.10
14 14.10
15 14.10
16 14.10
17 14.10
18 14.10
19 14.10
20 14.10
21 14.10
22 14.10
23 14.10
00 15.10
01 15.10
02 15.10
03 15.10
04 15.10
05 15.10
06 15.10
07 15.10
08 15.10
09 15.10
10 15.10
11 15.10
12 15.10
13 15.10
14 15.10
15 15.10
16 15.10
17 15.10
18 15.10
19 15.10
20 15.10
21 15.10
22 15.10
23 15.10
00 16.10
01 16.10
02 16.10
03 16.10
04 16.10
05 16.10
06 16.10
07 16.10
08 16.10
09 16.10
10 16.10
11 16.10
12 16.10
13 16.10
14 16.10
15 16.10
16 16.10
17 16.10
18 16.10
19 16.10
20 16.10
21 16.10
22 16.10
23 16.10
00 17.10
01 17.10
02 17.10
03 17.10
04 17.10
05 17.10
06 17.10
07 17.10
08 17.10
09 17.10
10 17.10
11 17.10
12 17.10
13 17.10
14 17.10
15 17.10
16 17.10
17 17.10
18 17.10
19 17.10
20 17.10
21 17.10
22 17.10
23 17.10
00 18.10
01 18.10
02 18.10
03 18.10
05 18.10
Ветер
(напр.,м/с)
Видим. Явления Облачность Т
(С)
Тd
(С)
f
(%)
Тe
(С)
Тes
(С)
Комфортность P
(гПа)
Po
(гПа)
Тmin
(С)
Tmax
(С)
R
(мм)
R24
(мм)
S
(см)
З 12 8000 м в посл. час дождь н/о +13.8 +12.1 89 +10 +10 тепло 1002.0 1001.6
З 9 9000 м дымка н/о +13.6 +11.9 89 +11 +11 тепло 1003.0 1002.6
ЮЗ 6 10 км {дождь, дымка} н/о +13.8 +12.5 92 +12 +12 тепло 1003.4 1003.0
ЮЗ 8 10 км н/о +14.3 +12.5 89 +12 +12 тепло 1003.2 1002.8
ЮЗ 9 7000 м слаб. ливневой дождь н/о +13.9 +12.8 93 +11 +11 тепло 1002.7 1002.3
ЮЗ 11 3900 м слаб. дождь н/о +13.5 +12.8 96 +10 +10 тепло 1002.5 1002.1
ЮЗ 12 8000 м слаб. ливневой дождь н/о +13.8 +12.5 92 +10 +10 тепло 1001.7 1001.3
ЮЗ 13 8000 м слаб. ливневой дождь н/о +13.7 +12.4 92 +10 +10 тепло 1001.0 1000.5
ЮЗ 10 2500 м дождь {ливн. осадки} н/о +13.1 +12.6 97 +10 +10 тепло 1000.2 999.8
ЮЗ 14 4400 м слаб. дождь н/о +13.6 +12.9 96 +10 +10 тепло 999.7 999.3
З 12 2300 м ливневой дождь н/о +13.2 +12.6 96 +10 +10 тепло 999.3 998.9
ЮЗ 12
{17}
2400 м дождь {ливн. осадки} н/о +13.5 +13.0 97 +10 +10 тепло 999.0 998.6 +12.5 +14.6
З 12 3300 м дождь н/о +13.6 +13.1 97 +10 +10 тепло 998.9 998.5
З 9 5000 м дождь н/о +13.5 +12.9 96 +11 +11 тепло 999.0 998.5
З 10
{18}
10 км слаб. дождь н/о +13.1 +12.4 96 +10 +10 тепло 998.9 998.5
З 10 12 км в посл. час дождь {ливн. осадки} н/о +13.5 +12.1 91 +10 +10 тепло 999.1 998.7
З 6 7000 м слаб. ливневой дождь н/о +13.2 +12.5 96 +11 +11 тепло 999.6 999.2
З 6
{18}
13 км в посл. час дождь {ливн. осадки} н/о +13.1 +12.5 96 +11 +11 тепло 999.8 999.4
З 6 13 км н/о +13.2 +11.9 92 +11 +11 тепло 1000.5 1000.1
З 5 16 км н/о +13.0 +11.0 88 +11 +11 тепло 1000.9 1000.5
ЮЗ 6 15 км слаб. морось {дождь} н/о +12.8 +11.2 90 +10 +10 тепло 1001.0 1000.6
ЮЗ 9 14 км слаб. морось {дождь} н/о +12.8 +10.9 88 +10 +10 тепло 1000.9 1000.5
З 10 14 км в посл. час морось {ливн. осадки} н/о +12.5 +9.6 82 +9 +9 тепло 1001.1 1000.7
З 10 14 км {ливн. осадки, дождь} н/о +12.5 +10.4 87 +9 +9 тепло 1001.9 1001.5 +12.3 +13.7
ЮЗ 11 13 км н/о +12.6 +10.6 88 +9 +9 тепло 1002.3 1001.8
ЮЗ 10 14 км н/о +12.8 +10.2 84 +9 +9 тепло 1002.9 1002.5
ЮЗ 11 13 км н/о +12.5 +10.5 88 +9 +9 тепло 1003.7 1003.3
ЮЗ 10 12 км в посл. час дождь {ливн. осадки} н/о +13.4 +11.0 85 +10 +10 тепло 1004.1 1003.7
ЮЗ 9 14 км н/о +13.4 +10.9 85 +10 +10 тепло 1004.6 1004.2
З 12 8000 м слаб. ливневой дождь н/о +12.7 +10.0 84 +9 +9 тепло 1005.0 1004.6
З 8 15 км в посл. час дождь {ливн. осадки} н/о +13.4 +11.4 88 +11 +11 тепло 1005.3 1004.9
З 7 13 км н/о +13.3 +11.3 88 +11 +11 тепло 1005.9 1005.5
З 7 15 км {ливн. осадки} н/о +13.6 +10.5 82 +11 +11 тепло 1006.3 1005.8
З 6 16 км н/о +13.0 +11.0 88 +11 +11 тепло 1006.7 1006.3
З 7 14 км н/о +12.9 +11.2 89 +10 +10 тепло 1007.2 1006.8
З 6 17 км {ливн. осадки} н/о +12.4 +10.9 91 +10 +10 тепло 1007.6 1007.1 +12.1 +14.2
З 6 14 км н/о +12.4 +10.9 91 +10 +10 тепло 1008.0 1007.6
З 5 18 км н/о +12.6 +10.6 88 +10 +10 тепло 1008.3 1007.9
З 5 18 км н/о +12.4 +10.5 88 +10 +10 тепло 1008.9 1008.5
З 5 17 км н/о +12.4 +10.6 89 +10 +10 тепло 1009.3 1008.9
ЮЗ 5 15 км н/о +12.3 +11.2 93 +10 +10 тепло 1009.5 1009.0
ЮЗ 5 12 км н/о +12.2 +11.5 95 +10 +10 тепло 1009.9 1009.5
ЮЗ 5 13 км н/о +12.2 +11.6 96 +10 +10 тепло 1009.7 1009.3
ЮЗ 5 13 км н/о +12.1 +11.4 95 +9 +9 тепло 1009.8 1009.4
ЮЗ 5 15 км н/о +12.1 +11.4 95 +9 +9 тепло 1009.9 1009.5
ЮЗ 6 18 км н/о +12.0 +11.2 95 +9 +9 тепло 1009.8 1009.4
ЮЗ 6 10 км н/о +12.0 +11.3 95 +9 +9 тепло 1010.1 1009.7
ЮЗ 6 12 км слаб. морось {дождь} н/о +11.9 +11.1 95 +9 +9 тепло 1010.3 1009.9 +11.8 +12.7
ЮЗ 6 22 км в посл. час морось {ливн. осадки} н/о +11.6 +10.6 94 +9 +9 тепло 1010.9 1010.5
Ю 5 18 км слаб. морось {дождь} н/о +11.5 +10.6 94 +9 +9 тепло 1010.9 1010.5
Ю 3 30 км слаб. ливневой дождь н/о +11.6 +10.2 91 +10 +10 тепло 1010.9 1010.5
ЮВ 4 17 км слаб. ливневой дождь {морось} н/о +11.6 +10.7 94 +9 +9 тепло 1010.6 1010.2
ЮВ 3 10 км слаб. ливневой дождь {морось} н/о +11.7 +11.2 97 +10 +10 тепло 1010.5 1010.1
ЮВ 4 30 км {ливн. осадки, дождь} н/о +11.7 +10.9 95 +9 +9 тепло 1010.0 1009.6
ЮВ 6 35 км в посл. час морось {ливн. осадки, дождь} н/о +11.5 +10.8 95 +8 +8 тепло 1008.9 1008.5
ЮВ 6 17 км слаб. морось {дождь} н/о +11.6 +10.7 94 +9 +9 тепло 1007.6 1007.2
ЮВ 7 9000 м дождь {ливн. осадки} н/о +11.5 +11.1 97 +8 +8 тепло 1006.4 1006.0
ЮВ 7 10 км слаб. ливневой дождь н/о +12.2 +11.8 97 +9 +9 тепло 1005.4 1005.0
ЮВ 7 2700 м сильн. ливневой дождь н/о +12.7 +12.5 99 +10 +10 тепло 1004.2 1003.8
Ю 7 3400 м слаб. ливневой дождь н/о +13.4 +13.3 99 +11 +11 тепло 1003.2 1002.8 +11.3 +13.5
Ю 6 3900 м дождь {ливн. осадки} н/о +13.9 +13.9 100 +12 +12 тепло 1002.2 1001.8
ЮЗ 7 5000 м слаб. дождь н/о +14.8 +14.8 100 +13 +13 тепло 1002.4 1002.0
ЮЗ 9 14 км {ливн. осадки, дождь} н/о +15.1 +13.9 93 +13 +13 тепло 1002.6 1002.2
ЮЗ 11 13 км н/о +15.2 +13.3 88 +13 +13 тепло 1003.0 1002.5
З 12 9000 м дымка н/о +14.9 +12.8 87 +12 +12 тепло 1003.5 1003.1
З 12
{17}
9000 м дымка {ливн. осадки, дождь} н/о +14.6 +12.6 88 +12 +12 тепло 1004.1 1003.7
З 14 10 км н/о +14.3 +11.0 81 +11 +11 тепло 1004.5 1004.1
З 14 10 км н/о +14.1 +10.6 79 +11 +11 тепло 1005.1 1004.7
З 13
{17}
10 км {дымка} н/о +13.9 +11.1 83 +11 +11 тепло 1006.2 1005.8
З 12 13 км н/о +13.4 +10.0 80 +10 +10 тепло 1007.4 1007.0
З 11 14 км н/о +12.8 +9.3 79 +9 +9 тепло 1008.3 1007.9
З 8
{17}
19 км {дымка} н/о +12.7 +9.3 80 +10 +10 тепло 1009.9 1009.5 +12.5 +15.6
З 6 18 км н/о +12.2 +9.0 81 +9 +9 тепло 1011.4 1011.0
З 6 21 км н/о +12.5 +8.7 78 +10 +10 тепло 1012.5 1012.1
З 6 27 км н/о +12.8 +8.9 77 +10 +10 тепло 1013.6 1013.2
З 4 27 км н/о +13.5 +9.1 75 +12 +12 тепло 1014.7 1014.3
СЗ 2 35 км н/о +13.7 +9.3 75 +13 +13 тепло 1015.1 1014.7
С 2 29 км н/о +13.9 +9.8 76 +14 +14 тепло 1015.0 1014.6
ЮЗ 1 30 км н/о +13.9 +9.7 76 +14 +14 тепло 1015.1 1014.7
Ю 3 30 км н/о +13.1 +10.8 86 +12 +12 тепло 1015.2 1014.8
ЮВ 1 35 км н/о +13.1 +9.3 78 +13 +13 тепло 1014.7 1014.3
В 2 35 км в посл. час морось {ливн. осадки, дождь} н/о +12.8 +9.6 81 +12 +12 тепло 1014.8 1014.4
ЮВ 2 35 км слаб. ливневой дождь н/о +12.3 +9.6 84 +12 +12 тепло 1015.1 1014.7
В 4 35 км в посл. час дождь {ливн. осадки} н/о +12.1 +10.2 88 +10 +10 тепло 1014.3 1013.8 +12.0 +14.6
ЮВ 2 29 км слаб. дождь н/о +11.8 +9.6 86 +11 +11 тепло 1014.4 1014.0
ЮВ 4 35 км в посл. час дождь {ливн. осадки} н/о +11.5 +9.1 85 +9 +9 тепло 1014.3 1013.9
В 5 19 км слаб. ливневой дождь н/о +11.1 +9.2 88 +8 +8 тепло 1013.6 1013.2
В 6 21 км слаб. ливневой дождь н/о +11.0 +9.6 91 +8 +8 тепло 1012.1 1011.7
В 5 35 км слаб. ливневой дождь н/о +10.7 +9.8 94 +8 +8 тепло 1011.9 1011.4
В 4 35 км {ливн. осадки, дождь} н/о +10.9 +10.0 94 +8 +8 тепло 1011.2 1010.7
В 3 40 км н/о +10.9 +10.0 94 +9 +9 тепло 1010.1 1009.7
ЮВ 3 50 км н/о +11.3 +9.2 87 +9 +9 тепло 1010.0 1009.6
ЮВ 6 50 км н/о +11.4 +9.2 86 +8 +8 тепло 1008.5 1008.1
ЮВ 7 40 км н/о +11.5 +9.4 87 +8 +8 тепло 1007.6 1007.2
ЮВ 9 30 км н/о +11.7 +9.9 89 +8 +8 тепло 1007.0 1006.6
ЮВ 9 22 км н/о +11.6 +10.3 92 +8 +8 тепло 1006.6 1006.2 +10.5 +12.1
ЮВ 9 17 км н/о +12.0 +10.9 93 +8 +8 тепло 1006.9 1006.5
ЮВ 8 17 км н/о +12.6 +11.3 92 +10 +10 тепло 1007.1 1006.7
ЮВ 9 16 км н/о +13.1 +11.6 91 +10 +10 тепло 1006.6 1006.2
ЮВ 8 18 км н/о +13.7 +12.1 90 +11 +11 тепло 1005.9 1005.5
ЮВ 6 16 км н/о +14.5 +12.6 88 +13 +13 тепло 1005.8 1005.4
Ю 5 13 км н/о +13.9 +12.5 91 +12 +12 тепло 1006.1 1005.7
Ю 5 15 км н/о +14.1 +12.4 89 +12 +12 тепло 1005.8 1005.4
Ю 6 13 км н/о +13.7 +12.4 92 +12 +12 тепло 1005.5 1005.1
Ю 5 12 км н/о +13.3 +12.5 95 +11 +11 тепло 1005.3 1004.9
ЮВ 3 10 км н/о +13.3 +12.7 96 +12 +12 тепло 1005.8 1005.4
Ю 3 9000 м дымка н/о +13.2 +12.6 96 +12 +12 тепло 1006.3 1005.9
ЮВ 3 8000 м дымка н/о +13.2 +12.7 97 +12 +12 тепло 1006.4 1006.0 +11.6 +14.7
Ю 2 6000 м дымка н/о +13.1 +12.7 97 +12 +12 тепло 1006.8 1006.4
Ю 1 4100 м дымка н/о +12.8 +12.5 98 +13 +13 тепло 1006.6 1006.2
штиль 0 3100 м дымка н/о +13.1 +12.9 99 +13 +13 тепло 1006.7 1006.3
СВ 1 2600 м дымка н/о +11.8 +11.6 99 +11 +11 тепло 1006.2 1005.8
СЗ 2 3000 м слаб. морось {дождь} н/о +13.1 +13.0 99 +12 +12 тепло 1006.4 1006.0
ЮВ 1 2400 м дымка {ливн. осадки, дождь} н/о +12.6 +12.4 99 +12 +12 тепло 1006.4 1006.0
Ю 1 2200 м слаб. ливневой дождь н/о +12.4 +12.3 99 +12 +12 тепло 1006.6 1006.2
СЗ 1 2000 м слаб. ливневой дождь н/о +12.8 +12.7 99 +13 +13 тепло 1006.0 1005.6
З 1 1300 м дождь {ливн. осадки} н/о +12.6 +12.6 100 +13 +13 тепло 1006.0 1005.6
СЗ 1 1400 м слаб. морось {дождь} н/о +12.7 +12.7 100 +13 +13 тепло 1005.9 1005.5
З 3 1500 м ливневой дождь {морось} н/о +12.6 +12.6 100 +11 +11 тепло 1006.0 1005.6
СЗ 2 1900 м слаб. дождь н/о +12.7 +12.7 100 +12 +12 тепло 1005.8 1005.4 +11.8 +13.3
З 2 1600 м морось {дождь} н/о +12.7 +12.6 99 +12 +12 тепло 1006.3 1005.9
СЗ 2 2100 м слаб. дождь {морось} н/о +12.7 +12.7 100 +12 +12 тепло 1006.4 1006.0
С 2 3200 м морось {дождь} н/о +12.7 +12.7 100 +12 +12 тепло 1006.3 1005.9
З 1 5000 м в посл. час морось н/о +12.8 +12.8 100 +13 +13 тепло 1006.5 1006.1
З 2 10 км слаб. ливневой дождь н/о +12.9 +12.8 99 +12 +12 тепло 1006.4 1006.0
ЮЗ 2 5000 м слаб. ливневой дождь н/о +12.8 +12.6 99 +12 +12 тепло 1006.5 1006.1
СЗ 2 40 км слаб. ливневой дождь н/о +12.7 +12.1 96 +12 +12 тепло 1006.6 1006.2
З 3 40 км в посл. час морось {ливн. осадки} н/о +13.1 +12.0 93 +12 +12 тепло 1006.9 1006.5
З 1 28 км слаб. ливневой дождь н/о +13.0 +12.1 94 +13 +13 тепло 1007.0 1006.6
Ю 1 20 км {ливн. осадки} н/о +13.2 +12.5 96 +13 +13 тепло 1007.1 1006.7
Ю 2 9000 м дымка н/о +12.3 +12.1 99 +12 +12 тепло 1007.2 1006.8
З 7 11 км {ливн. осадки, дождь} н/о +12.9 +11.6 92 +10 +10 тепло 1007.5 1007.1 +12.1 +13.2
З 6 13 км н/о +12.7 +11.1 90 +10 +10 тепло 1007.7 1007.3
ЮЗ 4 13 км н/о +12.2 +10.8 91 +10 +10 тепло 1007.6 1007.2
Ю 2 10 км н/о +11.8 +10.6 92 +11 +11 тепло 1007.6 1007.2
Ю 4 9000 м дымка н/о +11.8 +10.9 94 +9 +9 тепло 1007.5 1007.1
ЮВ 4 6000 м дымка н/о +10.9 +10.4 97 +8 +8 тепло 1007.3 1006.9
Ю 6 10 км {дымка} н/о +12.2 +11.1 93 +9 +9 тепло 1006.8 1006.4
Ю 6 8000 м дымка н/о +12.4 +11.4 94 +10 +10 тепло 1006.7 1006.3
Ю 6 6000 м слаб. ливневой дождь н/о +12.2 +11.6 96 +9 +9 тепло 1006.4 1006.0
Ю 6 3500 м морось {ливн. осадки, дождь} н/о +12.3 +12.1 99 +9 +9 тепло 1006.1 1005.7
Ю 6 4500 м слаб. дождь {морось} н/о +12.5 +12.4 99 +10 +10 тепло 1005.7 1005.3
Ю 6 3400 м сильн. морось {дождь} н/о +12.5 +12.5 100 +10 +10 тепло 1005.5 1005.1
Ю 5 3300 м сильн. морось {ливн. осадки, дождь} н/о +12.6 +12.6 100 +10 +10 тепло 1005.6 1005.2 +10.6 +13.0
Ю 5 9000 м в посл. час дождь {морось} н/о +12.7 +12.7 100 +10 +10 тепло 1006.2 1005.8
Ю 5 14 км слаб. ливневой дождь н/о +13.0 +13.0 100 +11 +11 тепло 1006.5 1006.1
З 4 4200 м в посл. час морось {ливн. осадки, дождь} н/о +12.9 +12.7 99 +11 +11 тепло 1007.1 1006.7
ЮЗ 4 19 км н/о +12.9 +12.7 99 +11 +11 тепло 1007.7 1007.3
З 4 23 км н/о +13.1 +12.4 96 +11 +11 тепло 1008.0 1007.6
ЮЗ 4 22 км {ливн. осадки, дождь} н/о +13.4 +12.6 95 +12 +12 тепло 1008.3 1007.9
ЮЗ 5 12 км слаб. дождь н/о +13.3 +12.4 94 +11 +11 тепло 1008.6 1008.2
ЮЗ 5 23 км {ливн. осадки, дождь} н/о +13.7 +12.3 91 +12 +12 тепло 1009.0 1008.6
ЮЗ 5 27 км {ливн. осадки, дождь} н/о +13.5 +11.2 86 +12 +12 тепло 1009.5 1009.1
З 5 29 км н/о +13.4 +10.2 81 +12 +12 тепло 1009.8 1009.4
З 4 35 км н/о +13.0 +9.9 81 +11 +11 тепло 1010.0 1009.6
ЮЗ 4 30 км {ливн. осадки, дождь} н/о +12.7 +10.5 86 +11 +11 тепло 1010.2 1009.8 +12.5 +13.8
ЮЗ 4 30 км н/о +12.5 +9.8 84 +11 +11 тепло 1010.3 1009.9
ЮЗ 6 21 км н/о +12.3 +10.7 90 +10 +10 тепло 1010.6 1010.2
Ю 2 18 км н/о +12.2 +10.7 91 +11 +11 тепло 1010.1 1009.6
ЮВ 4 15 км н/о +11.3 +10.6 95 +9 +9 тепло 1009.8 1009.4
ЮВ 3 10 км н/о +10.7 +10.4 98 +9 +9 тепло 1009.6 1009.2
ЮВ 4 9000 м дымка н/о +11.5 +11.2 98 +9 +9 тепло 1009.2 1008.8
ЮВ 3 8000 м слаб. ливневой дождь н/о +11.5 +11.2 98 +10 +10 тепло 1008.8 1008.4
ЮВ 6 10 км слаб. ливневой дождь н/о +11.3 +10.9 97 +8 +8 тепло 1008.1 1007.6
ЮВ 4 14 км в посл. час дождь {ливн. осадки} н/о +11.3 +11.1 99 +9 +9 тепло 1007.2 1006.8
ЮЗ 5 23 км {ливн. осадки, дождь} н/о +11.9 +11.5 97 +9 +9 тепло 1006.7 1006.3
Местоположение метеостанции Торае (Дания): широта 55.25 долгота 9.88 высота над уровнем моря 3 м.
В архиве по умолчанию представлена погода в Торае за последнюю неделю. Архивные данные за месяц целиком и за предыдущие месяцы, начиная с января 2011 года, Вы можете получить, выбрав интересующий диапазон дат из раскрывающегося списка и нажав кнопку "Найти!".
*Определитесь, кто Вы:
Внимание! Время в таблицах - всемирное. Для получения местного времени необходимо прибавить поправку, которая равна 1 ч.
Смотрите также архив погоды в соседних городах и на ближайших метеорологических станциях:
Партнеры нашего сайта:      
Пояснения к столбцам:
  • Ветер - указаны скорость ветра в м/с - средняя за 10 мин, порывы в срок и между сроками (в фигурных скобках) и направление, откуда дует ветер: С - северный,
  • СВ - северо-восточный, В - восточный, ЮВ - юго-восточный, Ю - южный, ЮЗ - юго-западный, З - западный, СЗ - северо-западный.
  • Видимость - горизонтальная дальность видимости в метрах или километрах. При видимости от 1 до 10 км при отсутствии осадков обычно наблюдается дымка, при ухудшении видимости до 1 км и менее - туман. В сухую погоду видимость может ухудшаться дымом, пылью или мглою.
  • Явления - указаны атмосферные явления, наблюдавшиеся в срок или в последний час перед сроком; фигурными скобками обозначены явления, наблюдавшиеся между сроками (за 1-3 часа до срока); квадратными скобками обозначены град или гололедные отложения с указанием их диаметра в мм.
  • Облачность - указаны через наклонную черту общая и нижняя облачность в баллах и высота нижней границы облаков в метрах; квадратными скобками обозначены формы облаков: Ci - перистые, Cs - перисто-слоистые, Cc - перисто-кучевые, Ac - высококучевые, As - высокослоистые, Sc - слоисто-кучевые, Ns - слоисто-дождевые, Cu - кучевые, Cb - кучево-дождевые. Подробнее классификацию облаков см. в Атласе облаков (PDF).
  • T - Температура воздуха - температура, измеренная на высоте 2 м над землей.
  • Td - Температура точки росы - температура, при понижении до которой содержащийся в воздухе водяной пар достигнет насыщения.
  • f - Относительная влажность воздуха - влажноcть воздуха, измеренная на высоте 2 м над землей.
  • Te - Эффективная температура - температура, которую ощущает одетый по сезону человек в тени. Характеристика душности погоды. При расчете учитывается влияние влажности воздуха и скорости ветра на теплоощущения человека.
  • Tes - Эффективная температура на солнце - температура, которую ощущает человек, с поправкой на солнечный нагрев. Характеристика знойности погоды. Зависит от высоты солнца над горизонтом, облачности и скорости ветра. Ночью, в пасмурную погоду, а также при ветре 12 м/с и более поправка равна нулю.
  • P - Атмосферное давление - приведенное к уровню моря атмосферное давление.
  • Po - Атмосферное давление - измеренное на уровне метеостанции атмосферное давление.
  • Tmin - Минимальная температура - минимум температуры воздуха на высоте 2 м над землей.
  • Tmax - Максимальная температура - максимум температуры воздуха на высоте 2 м над землей.
  • R - Количество осадков - Количество выпавших осадков за период времени, мм. При наведении курсора мыши на число - период времени, за который выпало указанное количество осадков.
  • R24 - Количество осадков - Количество выпавших осадков за 24 часа, мм.
  • S - Снежный покров - Высота снежного покрова, см. При наведении курсора мыши на число - состояние снежного покрова и степень покрытия местности в баллах.